sat.trackr.live / text

‹ back to catalog

SITRO-AIS 37

NORAD 61780 · 2024-199AX

PAYLOAD ACTIVE UNKNOWN

§ Identity

Operator
Country
CIS
Launch date
2024-11-04
Launch site
VOSTO
Launch vehicle
Mass (kg)
RCS (m²)

External: N2YO · Heavens-Above · Gunter

§ Orbital elements

Epoch: 2026-09-22T20:12:17.215488Z

Period
91.71 min
Inclination
97.2720°
Eccentricity
0.0002234
Mean motion
15.70248680 rev/d
Perigee alt
356.7 km
Apogee alt
359.7 km
Semi-major
6,736.3 km
B*
5.8833e-4
RAAN
145.0963°
Arg perigee
276.6922°
Mean anomaly
83.4086°
Rev number
14,970

§ Raw data

SITRO-AIS 371 61780U 24199AX  26265.84186592  .00071691  00000+0  58833-3 0  99942 61780  97.2720 145.0963 0002234 276.6922  83.4086 15.70248680149705

JSON: /api/v1/satellites/61780 · /tle

For live sub-satellite position, see the globe view (requires WebGL).

§ Visibility from observer

Set your observer location to see the next 7 days of passes ≥ 10°. The values pass through the URL so the page stays shareable.

No JS? Fill the form by hand. The geolocation button needs JavaScript.

§ Radio — SatNOGS DB

ModeDescriptionDownlinkUplink
GMSK USP Mode U - GMSK2k4 - USP 401.003 MHz

1 transmitter · refreshed weekly from db.satnogs.org